Regional Weather Roundup
Issued by NWS

Home | Current Version | Previous Version | Text Only | Print | Product List | Glossary On
Versions: 1 2 3 4 5 6 7 8 9 10 11 12 13 14 15 16 17 18 19 20 21 22 23 24 25 26 27 28 29 30 31 32 33 34 35 36 37 38 39 40 41 42 43 44 45 46 47 48 49 50
000
ASUS44 KOUN 010610
RWROK

WEATHER ROUNDUP FOR OKLAHOMA
NATIONAL WEATHER SERVICE NORMAN OK
100 AM CDT WED JUL 01 2015

NOTE: "FAIR" INDICATES FEW OR NO CLOUDS BELOW 12,000 FEET WITH NO
      SIGNIFICANT WEATHER AND/OR OBSTRUCTIONS TO VISIBILITY.

OKZ001>007-009>012-014-015-017-010700-
NORTHWEST OKLAHOMA AND THE PANHANDLE

CITY           SKY/WX    TMP DP  RH WIND       PRES   REMARKS
GAGE           CLEAR     74  62  66 S15       29.96
6HR MIN TEMP:  74; 6HR MAX TEMP:  92;

GUYMON         CLEAR     75  54  47 S14       29.99
ENID/WOODRING  MOCLDY    79  68  69 S8        29.92S
$$

OKZ016-021>023-033>039-044-045-010700-
SOUTHWEST OKLAHOMA

CITY           SKY/WX    TMP DP  RH WIND       PRES   REMARKS
LAWTON/REGL    PTCLDY    77  68  73 S8        29.97
6HR MIN TEMP:  77; 6HR MAX TEMP:  95;

LAWTON/FT SILL PTCLDY    79  69  73 S10       29.97R
FREDERICK      PTCLDY    81  65  58 S9        29.96
CLINTON        CLEAR     76  64  66 S12       30.00
HOBART         PTCLDY    72  66  81 S8        29.99
ALTUS AFB      PTCLDY    73  67  81 S7        29.97S
$$

OKZ018>020-024>031-010700-
CENTRAL OKLAHOMA

CITY           SKY/WX    TMP DP  RH WIND       PRES   REMARKS
OKLAHOMA CITY  PTCLDY    77  70  79 S10       29.96
6HR MIN TEMP:  77; 6HR MAX TEMP:  92;

OKC/WILEY POST PTCLDY    81  68  64 S12       29.96
OKC/TINKER AFB PTCLDY    77  70  78 S12       29.96S
STILLWATER     PTCLDY    80  71  74 S8        29.93
GUTHRIE        PTCLDY    80  70  71 S7        29.94
$$

OKZ008-013-054>072-010700-
NORTHEAST OKLAHOMA

CITY           SKY/WX    TMP DP  RH WIND       PRES   REMARKS
TULSA          MOCLDY    85  73  67 S16G24    29.91  HX  91
6HR MIN TEMP:  84; 6HR MAX TEMP:  93;

TULSA/JONES    CLEAR     82  73  74 S6        29.92
PONCA CITY     MOCLDY    82  70  66 S6        29.91
BARTLESVILLE   PTCLDY    79  73  82 S8        29.90
MUSKOGEE       PTCLDY    80  73  79 S9        29.96
$$

OKZ032-040>043-046>053-073>077-010700-
SOUTH CENTRAL/SOUTHEAST OKLAHOMA

CITY           SKY/WX    TMP DP  RH WIND       PRES   REMARKS
ARDMORE/DWNTWN PTCLDY    77  68  73 SW5       29.99S
MCALESTER      CLEAR     80  72  76 S7        29.99
$$



USA.gov is the U.S. government's official web portal to all federal, state and local government web resources and services.